Orbital Elements
Epoch 2004 Feb. 5.0 TT = JDT 2453040.5
T 2004 Jan. 22.89679 TT Muraoka
q 1.7959140 (2000.0) P Q
n 0.09102119 Peri. 47.18935 -0.98890482 +0.04331148
a 4.8944931 Node 134.73357 -0.07958257 -0.96216821
e 0.6330746 Incl. 11.53852 +0.12543475 -0.26899153
P 10.83
From 299 observations 1939-1993, mean residual 0".99. Nongravitational
parameters A1 = -0.01 +/- 0.02, A2 = -0.0108 +/- 0.0003.
|